Weather History for Sherman-Denison, TX

Change the Weather History Date:

Thursday, February 14, 2013

  Actual Average (KDFW) Record (KDFW)
Temperature  
Mean Temperature 50 °F 50 °F  
Max Temperature 64 °F 60 °F 85 °F (1996)
Min Temperature 35 °F 39 °F 15 °F (1936)
Degree Days  
Heating Degree Days 16 15  
Month to date heating degree days 235  
Since 1 July heating degree days 1740  
Cooling Degree Days 0 0  
Month to date cooling degree days 0  
Year to date cooling degree days 2  
Moisture  
Dew Point 34 °F    
Average Humidity 62    
Maximum Humidity 93    
Minimum Humidity 28    
Precipitation  
Precipitation 0.00 in 0.10 in 0.97 in (1951)
Month to date precipitation 1.26  
Year to date precipitation 3.39  
Snow  
Snow 0.00 in 0.00 in 3.00 in (1951)
Month to date snowfall 0.3  
Since 1 July snowfall 0.9  
Snow Depth -    
Sea Level Pressure  
Sea Level Pressure 30.06 in    
Wind  
Wind Speed 6 mph (SSW)    
Max Wind Speed 17 mph    
Max Gust Speed 24 mph    
Visibility 9 miles    
Events      
T = Trace of Precipitation, MM = Missing Value Source: NWS Daily Summary

Daily Weather History Graph

Daily Weather History Graph

Search for Another Location

Airport:

Trip Planner

Search our weather history database for the weather conditions in past years. The results will help you decide how hot, cold, wet, or windy it might be!

Date:

Astronomy

Feb. 14, 2013 Rise Set
Actual Time 7:11 AM CST 6:10 PM CST
Civil Twilight 6:46 AM CST 6:35 PM CST
Nautical Twilight 6:16 AM CST 7:05 PM CST
Astronomical Twilight 5:48 AM CST 7:34 PM CST
Moon 9:30 AM CST (2/14) 10:56 PM CST (2/14)
Length of Visible Light 11h 49m
Length of Day
10h 58m
Waxing Crescent, 22% of the Moon is Illuminated
Feb 14
Waxing Crescent
Feb 17
First Quarter
Feb 25
Full
Mar 4
Last Quarter
Mar 11
New

Hourly Weather History & Observations

Time (CST) Temp. Windchill Dew Point Humidity Pressure Visibility Wind Dir Wind Speed Gust Speed Precip Events Conditions
12:15 AM 41.0 °F 35.8 °F 35.6 °F 81% 30.05 in 10.0 mi SSW 8.1 mph - N/A   Clear
12:35 AM 42.8 °F 37.5 °F 35.6 °F 76% 30.05 in 10.0 mi SSW 9.2 mph - N/A   Clear
12:55 AM 42.8 °F 37.5 °F 35.6 °F 76% 30.05 in 10.0 mi SSW 9.2 mph - N/A   Clear
1:15 AM 41.0 °F 35.2 °F 35.6 °F 81% 30.05 in 10.0 mi SSW 9.2 mph - N/A   Clear
1:35 AM 41.0 °F 35.2 °F 35.6 °F 81% 30.06 in 10.0 mi SSW 9.2 mph - N/A   Clear
1:55 AM 41.0 °F 35.8 °F 35.6 °F 81% 30.05 in 10.0 mi SSW 8.1 mph - N/A   Clear
2:15 AM 41.0 °F 36.4 °F 35.6 °F 81% 30.05 in 10.0 mi SSW 6.9 mph - N/A   Clear
2:35 AM 39.2 °F 35.0 °F 35.6 °F 87% 30.05 in 10.0 mi South 5.8 mph - N/A   Clear
2:55 AM 37.4 °F 33.8 °F 35.6 °F 93% 30.04 in 10.0 mi South 4.6 mph - N/A   Clear
3:15 AM 37.4 °F 34.9 °F 35.6 °F 93% 30.04 in 10.0 mi South 3.5 mph - N/A   Clear
3:35 AM 37.4 °F 32.8 °F 35.6 °F 93% 30.04 in 10.0 mi South 5.8 mph - N/A   Clear
3:55 AM 37.4 °F 32.8 °F 33.8 °F 87% 30.03 in 7.0 mi South 5.8 mph - N/A   Clear
4:15 AM 37.4 °F 33.8 °F 33.8 °F 87% 30.04 in 7.0 mi SSW 4.6 mph - N/A   Clear
4:35 AM 37.4 °F 33.8 °F 35.6 °F 93% 30.04 in 7.0 mi SSW 4.6 mph - N/A   Clear
4:55 AM 37.4 °F 32.8 °F 35.6 °F 93% 30.04 in 7.0 mi SSW 5.8 mph - N/A   Clear
5:15 AM 35.6 °F 31.7 °F 33.8 °F 93% 30.05 in 7.0 mi SSW 4.6 mph - N/A   Clear
5:35 AM 37.4 °F 32.8 °F 33.8 °F 87% 30.05 in 7.0 mi SSW 5.8 mph - N/A   Clear
5:55 AM 37.4 °F 32.8 °F 33.8 °F 87% 30.05 in 7.0 mi South 5.8 mph - N/A   Clear
6:15 AM 37.4 °F 32.1 °F 35.6 °F 93% 30.06 in 7.0 mi South 6.9 mph - N/A   Clear
6:35 AM 37.4 °F 31.4 °F 35.6 °F 93% 30.06 in 10.0 mi SSW 8.1 mph - N/A   Clear
6:55 AM 37.4 °F 31.4 °F 35.6 °F 93% 30.07 in 7.0 mi SSW 8.1 mph - N/A   Clear
7:15 AM 37.4 °F 32.1 °F 35.6 °F 93% 30.07 in 7.0 mi SSW 6.9 mph - N/A   Clear
7:35 AM 37.4 °F 32.1 °F 35.6 °F 93% 30.08 in 5.0 mi SSW 6.9 mph - N/A   Clear
7:55 AM 39.2 °F 33.6 °F 37.4 °F 93% 30.08 in 5.0 mi SSW 8.1 mph - N/A   Clear
8:15 AM 41.0 °F 35.8 °F 37.4 °F 87% 30.09 in 7.0 mi SSW 8.1 mph - N/A   Clear
8:35 AM 42.8 °F 38.0 °F 37.4 °F 81% 30.10 in 10.0 mi SSW 8.1 mph - N/A   Clear
8:55 AM 44.6 °F 40.2 °F 37.4 °F 76% 30.10 in 10.0 mi SW 8.1 mph - N/A   Clear
9:15 AM 46.4 °F 41.9 °F 37.4 °F 71% 30.10 in 10.0 mi SSW 9.2 mph - N/A   Clear
9:35 AM 48.2 °F - 37.4 °F 66% 30.10 in 10.0 mi SW 8.1 mph - N/A   Clear
9:55 AM 50.0 °F - 37.4 °F 62% 30.10 in 10.0 mi SW 8.1 mph - N/A   Clear
10:15 AM 50.0 °F - 37.4 °F 62% 30.10 in 10.0 mi SSW 6.9 mph - N/A   Clear
10:35 AM 51.8 °F - 37.4 °F 58% 30.10 in 10.0 mi SSW 4.6 mph - N/A   Clear
10:55 AM 53.6 °F - 37.4 °F 54% 30.10 in 10.0 mi SW 4.6 mph - N/A   Clear
11:15 AM 53.6 °F - 35.6 °F 51% 30.10 in 10.0 mi SSW 5.8 mph - N/A   Clear
11:35 AM 55.4 °F - 35.6 °F 47% 30.09 in 10.0 mi SW 6.9 mph - N/A   Clear
11:55 AM 57.2 °F - 35.6 °F 44% 30.08 in 10.0 mi SW 4.6 mph - N/A   Clear
12:15 PM 57.2 °F - 35.6 °F 44% 30.08 in 10.0 mi SW 3.5 mph - N/A   Clear
12:35 PM 59.0 °F - 37.4 °F 45% 30.08 in 10.0 mi SSW 8.1 mph - N/A   Clear
12:55 PM 59.0 °F - 37.4 °F 45% 30.06 in 10.0 mi South 8.1 mph - N/A   Clear
1:15 PM 60.8 °F - 35.6 °F 39% 30.05 in 10.0 mi South 3.5 mph - N/A   Clear
1:35 PM 60.8 °F - 35.6 °F 39% 30.04 in 10.0 mi SSE 3.5 mph - N/A   Clear
1:55 PM 62.6 °F - 33.8 °F 34% 30.04 in 10.0 mi Calm Calm - N/A   Clear
2:15 PM 62.6 °F - 32.0 °F 32% 30.03 in 10.0 mi SW 3.5 mph - N/A   Clear
2:35 PM 62.6 °F - 33.8 °F 34% 30.03 in 10.0 mi Calm Calm - N/A   Clear
2:55 PM 62.6 °F - 32.0 °F 32% 30.02 in 10.0 mi East 3.5 mph - N/A   Clear
3:15 PM 62.6 °F - 30.2 °F 30% 30.02 in 10.0 mi Calm Calm - N/A   Clear
3:35 PM 64.4 °F - 30.2 °F 28% 30.02 in 10.0 mi SW 5.8 mph - N/A   Clear
3:55 PM 64.4 °F - 30.2 °F 28% 30.02 in 7.0 mi SSW 3.5 mph - N/A   Clear
4:15 PM 64.4 °F - 30.2 °F 28% 30.02 in 10.0 mi SSW 4.6 mph - N/A   Clear
4:35 PM 64.4 °F - 30.2 °F 28% 30.02 in 10.0 mi SSW 5.8 mph - N/A   Clear
4:55 PM 62.6 °F - 30.2 °F 30% 30.02 in 10.0 mi South 4.6 mph - N/A   Clear
5:15 PM 62.6 °F - 30.2 °F 30% 30.02 in 10.0 mi Calm Calm - N/A   Clear
5:35 PM 60.8 °F - 32.0 °F 34% 30.03 in 10.0 mi South 3.5 mph - N/A   Clear
5:55 PM 60.8 °F - 32.0 °F 34% 30.03 in 10.0 mi SSW 3.5 mph - N/A   Clear
6:15 PM 57.2 °F - 32.0 °F 38% 30.03 in 10.0 mi Calm Calm - N/A   Clear
6:35 PM 55.4 °F - 32.0 °F 41% 30.04 in 10.0 mi South 4.6 mph - N/A   Clear
6:55 PM 53.6 °F - 32.0 °F 44% 30.04 in 10.0 mi Calm Calm - N/A   Clear
7:15 PM 53.6 °F - 35.6 °F 51% 30.05 in 10.0 mi Calm Calm - N/A   Clear
7:55 PM 51.8 °F - 32.0 °F 47% 30.05 in 10.0 mi Calm Calm - N/A   Clear
8:15 PM 51.8 °F - 32.0 °F 47% 30.06 in 10.0 mi Calm Calm - N/A   Clear
8:35 PM 50.0 °F - 32.0 °F 50% 30.06 in 10.0 mi East 4.6 mph - N/A   Clear
8:55 PM 50.0 °F - 32.0 °F 50% 30.07 in 10.0 mi East 3.5 mph - N/A   Clear
9:15 PM 48.2 °F - 33.8 °F 58% 30.07 in 10.0 mi East 3.5 mph - N/A   Clear
9:35 PM 48.2 °F - 33.8 °F 58% 30.07 in 10.0 mi East 3.5 mph - N/A   Clear
9:55 PM 48.2 °F - 33.8 °F 58% 30.08 in 10.0 mi Calm Calm - N/A   Clear
10:15 PM 46.4 °F 39.5 °F 33.8 °F 62% 30.10 in 10.0 mi North 17.3 mph 24.2 mph N/A   Scattered Clouds
10:35 PM 48.2 °F - 35.6 °F 62% 30.10 in 10.0 mi NNE 12.7 mph - N/A   Mostly Cloudy
10:55 PM 50.0 °F - 35.6 °F 58% 30.11 in 10.0 mi NNE 12.7 mph 19.6 mph N/A   Scattered Clouds
11:15 PM 50.0 °F - 35.6 °F 58% 30.13 in 10.0 mi NNE 12.7 mph 18.4 mph N/A   Clear
11:35 PM 50.0 °F - 33.8 °F 54% 30.14 in 10.0 mi NNE 13.8 mph 18.4 mph N/A   Clear
11:55 PM 50.0 °F - 33.8 °F 54% 30.16 in 10.0 mi NNE 11.5 mph - N/A   Clear